SIA223 WSSS-VOBL

Flight info

Callsign SIA223
Flight time 1h 13m
Altitude 34000
Route AROSO3A AROSO Y513 KALIL Y504 GUNIP N571 IDASO P761 MMV W117 XIVIL XIVIL7F
Aircraft B77W/H-SDE1E2E3FGHIJ2J3J4J5M1RWXY/LB1D1

Departure

Time 2026-05-05 07:39
Airport Singapore Changi Airport (WSSS)

Arrival

Time 2026-05-05 08:52
Airport Kempegowda International Airport Bengaluru (VOBL)
Time Latitude Longitude Altitude Speed Heading
2026-05-05 07:12 1.34302 103.98533 29 ft 0 kts 203°
2026-05-05 07:26 1.34315 103.98538 28 ft 2 kts 203°
2026-05-05 07:26 1.34330 103.98543 27 ft 2 kts 188°
2026-05-05 07:27 1.34347 103.98545 26 ft 2 kts 175°
2026-05-05 07:27 1.34363 103.98541 27 ft 2 kts 150°
2026-05-05 07:27 1.34371 103.98536 26 ft 1 kts 123°
2026-05-05 07:27 1.34372 103.98535 26 ft 0 kts 122°
2026-05-05 07:30 1.34367 103.98547 25 ft 5 kts 113°
2026-05-05 07:30 1.34352 103.98584 29 ft 6 kts 112°
2026-05-05 07:31 1.34336 103.98622 29 ft 6 kts 114°
2026-05-05 07:31 1.34319 103.98660 29 ft 6 kts 113°
2026-05-05 07:31 1.34302 103.98698 29 ft 6 kts 114°
2026-05-05 07:31 1.34283 103.98743 29 ft 7 kts 114°
2026-05-05 07:32 1.34242 103.98766 29 ft 8 kts 184°
2026-05-05 07:32 1.34191 103.98753 29 ft 8 kts 199°
2026-05-05 07:32 1.34141 103.98734 29 ft 8 kts 203°
2026-05-05 07:32 1.34084 103.98709 29 ft 12 kts 203°
2026-05-05 07:33 1.33967 103.98659 47 ft 24 kts 203°
2026-05-05 07:33 1.33813 103.98593 29 ft 24 kts 203°
2026-05-05 07:33 1.33657 103.98536 29 ft 24 kts 205°
2026-05-05 07:33 1.33506 103.98464 29 ft 24 kts 205°
2026-05-05 07:34 1.33351 103.98400 29 ft 24 kts 202°
2026-05-05 07:34 1.33197 103.98336 29 ft 24 kts 202°
2026-05-05 07:34 1.33065 103.98281 29 ft 10 kts 203°
2026-05-05 07:34 1.33010 103.98276 29 ft 8 kts 137°
2026-05-05 07:35 1.32982 103.98328 29 ft 9 kts 113°
2026-05-05 07:35 1.32965 103.98369 29 ft 0 kts 113°
2026-05-05 07:36 1.32954 103.98393 29 ft 9 kts 113°
2026-05-05 07:37 1.32917 103.98481 29 ft 10 kts 112°
2026-05-05 07:37 1.32914 103.98510 29 ft 5 kts 68°
2026-05-05 07:37 1.32957 103.98528 29 ft 0 kts 21°
2026-05-05 07:38 1.33155 103.98613 29 ft 66 kts 20°
2026-05-05 07:38 1.33781 103.98876 29 ft 129 kts 22°
2026-05-05 07:38 1.34780 103.99299 29 ft 179 kts 24°
2026-05-05 07:38 1.36006 103.99778 368 ft 191 kts 22°
2026-05-05 07:39 1.37270 104.00307 861 ft 201 kts 25°
2026-05-05 07:39 1.38581 104.00887 1389 ft 209 kts 24°
2026-05-05 07:39 1.39942 104.01478 1892 ft 222 kts 24°
2026-05-05 07:39 1.41447 104.02122 2106 ft 246 kts 24°
2026-05-05 07:40 1.43064 104.02807 2561 ft 259 kts 23°
2026-05-05 07:40 1.44756 104.03521 3138 ft 268 kts 23°
2026-05-05 07:40 1.46840 104.04400 3998 ft 271 kts 23°
2026-05-05 07:40 1.51819 104.04072 5623 ft 275 kts 332°
2026-05-05 07:41 1.58701 104.00348 8094 ft 287 kts 332°
2026-05-05 07:41 1.65094 103.96887 10132 ft 299 kts 332°
2026-05-05 07:41 1.66964 103.95875 10419 ft 315 kts 332°
2026-05-05 07:41 1.68958 103.94796 10549 ft 336 kts 332°
2026-05-05 07:42 1.71048 103.93666 10705 ft 356 kts 332°
2026-05-05 07:42 1.73290 103.92456 10864 ft 376 kts 332°
2026-05-05 07:42 1.77160 103.89493 11308 ft 389 kts 308°
2026-05-05 07:42 1.83654 103.80808 13758 ft 410 kts 308°
2026-05-05 07:43 1.90713 103.71661 16240 ft 422 kts 308°
2026-05-05 07:43 1.98012 103.62190 18419 ft 437 kts 308°
2026-05-05 07:43 2.05550 103.52386 20334 ft 450 kts 308°
2026-05-05 07:43 2.13326 103.42269 22170 ft 462 kts 308°
2026-05-05 07:44 2.17817 103.30081 23779 ft 476 kts 285°
2026-05-05 07:44 2.21476 103.17210 25126 ft 486 kts 287°
2026-05-05 07:44 2.25338 103.04095 26433 ft 496 kts 287°
2026-05-05 07:44 2.29246 102.90755 27648 ft 505 kts 287°
2026-05-05 07:45 2.33145 102.77459 28727 ft 513 kts 287°
2026-05-05 07:45 2.37176 102.63647 29677 ft 520 kts 287°
2026-05-05 07:45 2.41252 102.49661 30391 ft 526 kts 287°
2026-05-05 07:45 2.45546 102.35662 31074 ft 527 kts 293°
2026-05-05 07:46 2.53152 102.23246 31966 ft 523 kts 308°
2026-05-05 07:46 2.58057 102.16742 32474 ft 521 kts 308°
2026-05-05 07:46 2.60225 102.13841 32720 ft 520 kts 307°
2026-05-05 07:46 2.62379 102.10938 32933 ft 519 kts 307°
2026-05-05 07:47 2.64517 102.08040 33163 ft 518 kts 307°
2026-05-05 07:47 2.66653 102.05136 33414 ft 517 kts 307°
2026-05-05 07:47 2.68780 102.02242 33674 ft 515 kts 307°
2026-05-05 07:47 2.72095 101.97731 33748 ft 519 kts 307°
2026-05-05 07:48 2.85794 101.79107 33790 ft 518 kts 307°
2026-05-05 07:48 3.02641 101.56196 33775 ft 507 kts 307°
2026-05-05 07:49 3.19539 101.33198 33845 ft 518 kts 307°
2026-05-05 07:49 3.36410 101.10176 33857 ft 510 kts 307°
2026-05-05 07:50 3.52495 100.87325 33846 ft 500 kts 306°
2026-05-05 07:50 3.68926 100.64459 33837 ft 511 kts 307°
2026-05-05 07:51 3.85613 100.41539 33797 ft 502 kts 307°
2026-05-05 07:51 4.01871 100.19175 33825 ft 498 kts 307°
2026-05-05 07:52 4.18408 99.96404 33849 ft 511 kts 306°
2026-05-05 07:52 4.35173 99.73297 33798 ft 509 kts 306°
2026-05-05 07:53 4.51746 99.50747 33818 ft 501 kts 311°
2026-05-05 07:53 4.70250 99.29618 33864 ft 514 kts 311°
2026-05-05 07:54 4.88986 99.08031 33800 ft 507 kts 311°
2026-05-05 07:54 5.07316 98.86904 33818 ft 501 kts 311°
2026-05-05 07:55 5.25878 98.65485 33853 ft 515 kts 311°
2026-05-05 07:55 5.44809 98.43621 33805 ft 517 kts 311°
2026-05-05 07:56 5.63283 98.22262 33802 ft 505 kts 311°
2026-05-05 07:56 5.81908 98.00703 33866 ft 517 kts 311°
2026-05-05 07:57 6.00873 97.78722 33810 ft 517 kts 311°
2026-05-05 07:57 6.18536 97.56529 33762 ft 505 kts 296°
2026-05-05 07:58 6.22881 97.43065 33869 ft 509 kts 287°
2026-05-05 07:58 6.26853 97.29300 33881 ft 517 kts 287°
2026-05-05 07:58 6.35014 97.01600 33820 ft 517 kts 287°
2026-05-05 07:59 6.43057 96.74206 33821 ft 507 kts 287°
2026-05-05 07:59 6.51440 96.46758 33859 ft 520 kts 296°
2026-05-05 08:00 6.64367 96.20625 33819 ft 518 kts 297°
2026-05-05 08:00 6.76970 95.94821 33841 ft 515 kts 297°
2026-05-05 08:01 6.89823 95.68636 33884 ft 528 kts 297°
2026-05-05 08:01 7.02757 95.42198 33818 ft 518 kts 297°
2026-05-05 08:02 7.15373 95.16370 33863 ft 514 kts 297°
2026-05-05 08:02 7.28141 94.90181 33881 ft 526 kts 297°
2026-05-05 08:03 7.40883 94.63995 33801 ft 512 kts 297°
2026-05-05 08:03 7.53217 94.38497 33854 ft 514 kts 296°
2026-05-05 08:04 7.65100 94.11667 33869 ft 525 kts 295°
2026-05-05 08:04 7.76826 93.85301 33810 ft 510 kts 295°
2026-05-05 08:05 7.88386 93.59236 33887 ft 512 kts 295°
2026-05-05 08:05 8.00232 93.32704 33868 ft 520 kts 295°
2026-05-05 08:06 8.11961 93.06460 33811 ft 505 kts 295°
2026-05-05 08:06 8.23573 92.80423 33892 ft 516 kts 295°
2026-05-05 08:07 8.35382 92.53888 33848 ft 521 kts 295°
2026-05-05 08:07 8.47099 92.27500 33833 ft 509 kts 296°
2026-05-05 08:08 8.58770 92.01141 33893 ft 521 kts 296°
2026-05-05 08:08 8.71292 91.74549 33838 ft 521 kts 296°
2026-05-05 08:09 8.83564 91.48453 33846 ft 513 kts 296°
2026-05-05 08:09 8.95979 91.22009 33894 ft 527 kts 297°
2026-05-05 08:10 9.08490 90.95301 33822 ft 517 kts 296°
2026-05-05 08:10 9.20613 90.69368 33856 ft 509 kts 297°
2026-05-05 08:11 9.32862 90.43101 33880 ft 523 kts 297°
2026-05-05 08:11 9.45226 90.16527 33822 ft 515 kts 297°
2026-05-05 08:12 9.57299 89.90525 33859 ft 510 kts 296°
2026-05-05 08:12 9.69519 89.64137 33877 ft 524 kts 296°
2026-05-05 08:13 9.81785 89.37590 33822 ft 516 kts 296°
2026-05-05 08:13 9.93870 89.11371 33866 ft 516 kts 296°
2026-05-05 08:14 10.06154 88.84644 33868 ft 525 kts 296°
2026-05-05 08:14 10.18269 88.58209 33812 ft 506 kts 295°
2026-05-05 08:15 10.30953 88.32658 33882 ft 512 kts 297°
2026-05-05 08:15 10.43958 88.06858 33849 ft 518 kts 297°
2026-05-05 08:16 10.56922 87.81078 33817 ft 505 kts 297°
2026-05-05 08:16 10.69838 87.55324 33886 ft 520 kts 297°
2026-05-05 08:17 10.83118 87.28783 33845 ft 527 kts 297°
2026-05-05 08:17 10.96211 87.02548 33824 ft 513 kts 297°
2026-05-05 08:18 11.09160 86.76530 33895 ft 521 kts 296°
2026-05-05 08:18 11.19335 86.56041 34438 ft 521 kts 296°
2026-05-05 08:19 11.20967 86.52751 34727 ft 517 kts 296°
2026-05-05 08:19 11.22563 86.49533 35052 ft 513 kts 296°
2026-05-05 08:19 11.24169 86.46293 35351 ft 510 kts 296°
2026-05-05 08:19 11.25765 86.43072 35592 ft 509 kts 296°
2026-05-05 08:20 11.27359 86.39855 35760 ft 508 kts 296°
2026-05-05 08:20 11.32340 86.29792 35838 ft 509 kts 296°
2026-05-05 08:20 11.45036 86.04097 35829 ft 502 kts 296°
2026-05-05 08:21 11.57480 85.78844 35859 ft 498 kts 296°
2026-05-05 08:21 11.70077 85.53209 35889 ft 511 kts 296°
2026-05-05 08:22 11.82640 85.27581 35809 ft 500 kts 295°
2026-05-05 08:22 11.94980 85.02335 35867 ft 499 kts 295°
2026-05-05 08:23 12.07550 84.76545 35873 ft 513 kts 295°
2026-05-05 08:23 12.20214 84.50493 35814 ft 507 kts 295°
2026-05-05 08:24 12.30571 84.29126 35837 ft 503 kts 295°
2026-05-05 08:24 12.43128 84.03147 35884 ft 515 kts 295°
2026-05-05 08:25 12.55768 83.76919 35816 ft 508 kts 295°
2026-05-05 08:25 12.66560 83.50787 35813 ft 495 kts 277°
2026-05-05 08:26 12.68899 83.27457 35872 ft 506 kts 274°
2026-05-05 08:26 12.71807 82.98819 35804 ft 500 kts 274°
2026-05-05 08:27 12.74607 82.70884 35831 ft 491 kts 275°
2026-05-05 08:27 12.77385 82.42864 35871 ft 504 kts 275°
2026-05-05 08:28 12.80199 82.14195 35804 ft 500 kts 275°
2026-05-05 08:28 12.82920 81.86152 35826 ft 494 kts 275°
2026-05-05 08:29 12.85642 81.57757 35853 ft 506 kts 275°
2026-05-05 08:30 12.89680 81.15073 35783 ft 490 kts 274°
2026-05-05 08:30 12.92276 80.87184 35848 ft 498 kts 275°
2026-05-05 08:31 12.94861 80.59106 35846 ft 510 kts 275°
2026-05-05 08:31 12.97444 80.30668 35770 ft 497 kts 275°
2026-05-05 08:32 13.00817 80.07051 35822 ft 502 kts 284°
2026-05-05 08:32 13.07941 79.78927 35840 ft 511 kts 284°
2026-05-05 08:33 13.14834 79.51107 34010 ft 490 kts 284°
2026-05-05 08:33 13.15939 79.46633 32125 ft 482 kts 284°
2026-05-05 08:33 13.16762 79.43297 31407 ft 481 kts 284°
2026-05-05 08:33 13.17586 79.39957 30736 ft 483 kts 284°
2026-05-05 08:34 13.18622 79.35751 29965 ft 490 kts 283°
2026-05-05 08:34 13.21916 79.22371 27390 ft 479 kts 283°
2026-05-05 08:34 13.25138 79.09245 25084 ft 462 kts 283°
2026-05-05 08:34 13.27329 79.00296 23466 ft 430 kts 283°
2026-05-05 08:35 13.28052 78.97349 22765 ft 418 kts 283°
2026-05-05 08:35 13.28722 78.94464 22226 ft 415 kts 279°
2026-05-05 08:35 13.29098 78.91526 21709 ft 416 kts 273°
2026-05-05 08:35 13.29205 78.88536 21182 ft 422 kts 268°
2026-05-05 08:36 13.29036 78.85506 20662 ft 427 kts 265°
2026-05-05 08:36 13.28807 78.82464 20107 ft 427 kts 265°
2026-05-05 08:36 13.28569 78.79436 19571 ft 424 kts 265°
2026-05-05 08:36 13.28336 78.76420 19030 ft 422 kts 265°
2026-05-05 08:37 13.28112 78.73420 18493 ft 420 kts 265°
2026-05-05 08:37 13.27894 78.70444 17930 ft 418 kts 265°
2026-05-05 08:37 13.27682 78.67514 17352 ft 415 kts 265°
2026-05-05 08:37 13.27471 78.64571 16812 ft 412 kts 265°
2026-05-05 08:38 13.27261 78.61646 16282 ft 409 kts 265°
2026-05-05 08:38 13.27051 78.58745 15767 ft 406 kts 265°
2026-05-05 08:38 13.26842 78.55856 15247 ft 404 kts 265°
2026-05-05 08:38 13.26634 78.52992 14820 ft 399 kts 266°
2026-05-05 08:39 13.26435 78.50222 14659 ft 376 kts 266°
2026-05-05 08:39 13.26282 78.47625 14481 ft 355 kts 270°
2026-05-05 08:39 13.26374 78.45135 14352 ft 344 kts 276°
2026-05-05 08:39 13.26709 78.42734 14205 ft 335 kts 280°
2026-05-05 08:40 13.27095 78.40415 14069 ft 326 kts 281°
2026-05-05 08:40 13.27477 78.38152 13939 ft 317 kts 281°
2026-05-05 08:40 13.27843 78.35953 13824 ft 309 kts 281°
2026-05-05 08:40 13.28196 78.33800 13670 ft 302 kts 280°
2026-05-05 08:41 13.28533 78.31706 13531 ft 292 kts 280°
2026-05-05 08:41 13.28851 78.29713 13393 ft 282 kts 280°
2026-05-05 08:41 13.29160 78.27765 13197 ft 273 kts 281°
2026-05-05 08:41 13.29464 78.25856 12924 ft 267 kts 281°
2026-05-05 08:42 13.29760 78.23990 12628 ft 263 kts 281°
2026-05-05 08:42 13.30054 78.22146 12301 ft 260 kts 281°
2026-05-05 08:42 13.30345 78.20322 11952 ft 255 kts 281°
2026-05-05 08:42 13.30346 78.18559 11602 ft 243 kts 254°
2026-05-05 08:43 13.29696 78.17022 11347 ft 231 kts 244°
2026-05-05 08:43 13.28963 78.15547 11110 ft 233 kts 244°
2026-05-05 08:43 13.28215 78.14054 10795 ft 238 kts 244°
2026-05-05 08:43 13.27460 78.12550 10488 ft 235 kts 244°
2026-05-05 08:44 13.26718 78.11069 10192 ft 231 kts 244°
2026-05-05 08:44 13.25994 78.09620 9904 ft 226 kts 244°
2026-05-05 08:44 13.25282 78.08196 9594 ft 222 kts 244°
2026-05-05 08:44 13.24596 78.06821 9313 ft 220 kts 244°
2026-05-05 08:45 13.23893 78.05411 9066 ft 223 kts 244°
2026-05-05 08:45 13.23181 78.03981 8793 ft 226 kts 244°
2026-05-05 08:45 13.22466 78.02547 8510 ft 225 kts 244°
2026-05-05 08:45 13.21754 78.01114 8231 ft 224 kts 245°
2026-05-05 08:46 13.21047 77.99687 7939 ft 222 kts 248°
2026-05-05 08:46 13.20694 77.98175 7670 ft 216 kts 270°
2026-05-05 08:46 13.20655 77.96642 7389 ft 215 kts 271°
2026-05-05 08:46 13.20638 77.95115 7101 ft 212 kts 272°
2026-05-05 08:47 13.20637 77.93640 6830 ft 204 kts 273°
2026-05-05 08:47 13.20641 77.92233 6569 ft 190 kts 273°
2026-05-05 08:47 13.20646 77.90934 6338 ft 176 kts 274°
2026-05-05 08:47 13.20650 77.89682 6154 ft 175 kts 274°
2026-05-05 08:48 13.20655 77.88441 5950 ft 175 kts 273°
2026-05-05 08:48 13.20659 77.87192 5718 ft 174 kts 273°
2026-05-05 08:48 13.20663 77.85954 5472 ft 173 kts 274°
2026-05-05 08:48 13.20667 77.84726 5247 ft 172 kts 274°
2026-05-05 08:49 13.20672 77.83490 5048 ft 174 kts 274°
2026-05-05 08:49 13.20674 77.82246 4841 ft 175 kts 274°
2026-05-05 08:49 13.20678 77.80998 4616 ft 173 kts 274°
2026-05-05 08:49 13.20683 77.79774 4397 ft 171 kts 274°
2026-05-05 08:50 13.20686 77.78554 4175 ft 171 kts 274°
2026-05-05 08:50 13.20690 77.77331 3962 ft 171 kts 273°
2026-05-05 08:50 13.20694 77.76125 3734 ft 166 kts 274°
2026-05-05 08:50 13.20698 77.74944 3519 ft 164 kts 273°
2026-05-05 08:51 13.20700 77.73772 3306 ft 164 kts 272°
2026-05-05 08:51 13.20705 77.72624 3102 ft 163 kts 273°
2026-05-05 08:51 13.20711 77.71470 3016 ft 147 kts 270°
2026-05-05 08:51 13.20713 77.70610 3016 ft 94 kts 270°
2026-05-05 08:52 13.20697 77.70142 3016 ft 42 kts 250°
2026-05-05 08:52 13.20600 77.69955 3016 ft 19 kts 218°
2026-05-05 08:52 13.20538 77.69983 3016 ft 11 kts 89°
2026-05-05 08:52 13.20537 77.70017 3016 ft 0 kts 92°
2026-05-05 08:53 13.20537 77.70018 3016 ft 1 kts 91°
2026-05-05 08:53 13.20536 77.70050 3016 ft 9 kts 92°
2026-05-05 08:54 13.20535 77.70144 3017 ft 17 kts 91°
2026-05-05 08:54 13.20532 77.70297 3016 ft 25 kts 91°
2026-05-05 08:54 13.20532 77.70505 3016 ft 32 kts 91°
2026-05-05 08:54 13.20530 77.70742 3016 ft 33 kts 90°
2026-05-05 08:55 13.20528 77.70968 3015 ft 31 kts 91°
2026-05-05 08:55 13.20525 77.71183 3016 ft 30 kts 90°
2026-05-05 08:55 13.20524 77.71397 3016 ft 30 kts 90°
2026-05-05 08:55 13.20523 77.71611 3016 ft 30 kts 90°
2026-05-05 08:56 13.20521 77.71824 3016 ft 30 kts 90°
2026-05-05 08:56 13.20518 77.72013 3016 ft 18 kts 89°
2026-05-05 08:56 13.20515 77.72078 3016 ft 8 kts 105°
2026-05-05 08:56 13.20475 77.72110 3016 ft 8 kts 163°
2026-05-05 08:57 13.20423 77.72114 3016 ft 8 kts 180°
2026-05-05 08:57 13.20367 77.72114 3016 ft 9 kts 181°
2026-05-05 08:57 13.20280 77.72113 3016 ft 17 kts 180°
2026-05-05 08:57 13.20140 77.72112 3016 ft 21 kts 180°
2026-05-05 08:58 13.20022 77.72110 3016 ft 14 kts 181°
2026-05-05 08:58 13.19952 77.72109 3016 ft 6 kts 187°
2026-05-05 08:58 13.19946 77.72073 3016 ft 6 kts 285°
2026-05-05 08:58 13.19949 77.72030 3016 ft 6 kts 272°
2026-05-05 08:59 13.19949 77.72023 3016 ft 0 kts 271°